Theta_e
312 312 310 310 314 312 311 318 320 320 319 322 325 329 330 328 327 330 332 332 332 330 329 328 329 323 323 324 323 324 328 331 331 332 331 325 329 327 328 329 330 331 330 331 336
315 311 311 309 312 315 309 313 320 320 320 320 321 325 329 330 327 329 328 328 330 330 328 325 326 324 325 325 324 324 328 329 329 330 329 325 326 327 328 328 330 331 332 331 331
315 315 311 310 308 313 315 308 312 320 321 320 321 320 326 329 328 328 328 328 329 329 329 325 324 324 325 326 325 325 327 326 327 326 323 326 324 324 326 327 327 329 331 332 334
311 314 313 311 309 309 311 315 308 313 319 321 321 319 322 327 329 327 329 328 328 329 330 327 324 324 325 326 325 325 324 324 324 320 321 324 325 325 326 326 327 328 329 333 335
311 311 314 311 311 309 309 314 310 308 318 319 321 320 321 325 326 325 325 326 328 328 327 325 326 324 327 326 326 326 325 324 324 322 322 321 322 325 326 326 325 324 327 332 333
310 310 311 314 311 310 310 310 314 308 314 318 320 321 321 323 325 325 325 324 326 328 325 324 325 325 325 325 325 325 325 326 324 324 322 322 323 320 323 324 325 325 326 328 331
309 309 309 313 313 311 309 310 312 311 307 317 320 321 322 321 322 323 323 324 325 327 323 323 323 323 325 325 324 325 326 325 325 325 325 322 325 324 322 320 321 323 325 326 328
308 308 309 310 314 312 311 308 311 313 306 314 319 321 321 320 322 322 323 324 322 324 324 322 321 322 324 323 325 326 326 328 326 326 325 325 325 326 325 323 322 323 324 325 327
306 308 309 310 313 313 312 308 311 312 311 311 318 321 321 319 321 322 323 323 322 323 322 322 321 322 322 324 327 326 328 328 327 326 326 325 325 324 327 327 325 324 325 325 325
305 307 308 310 313 313 312 309 311 311 312 313 317 319 318 319 320 322 322 323 322 323 323 322 323 322 323 326 331 328 328 327 328 327 325 326 325 324 325 324 326 326 327 327 326
304 306 308 310 312 313 312 311 313 312 312 311 315 317 314 318 319 321 323 322 321 322 323 321 324 322 321 324 321 325 325 327 326 323 323 325 325 325 324 323 323 324 326 326 326
303 305 308 310 312 313 311 312 312 312 313 312 314 316 316 315 317 321 323 321 322 323 322 322 324 322 320 319 319 321 322 325 324 322 322 324 325 324 324 324 323 322 322 322 325
303 305 308 310 312 313 311 311 312 312 312 312 313 315 315 317 319 320 321 321 321 323 324 324 323 321 321 320 321 319 322 322 324 323 322 323 325 324 324 324 323 323 323 321 321
303 306 308 309 311 314 311 312 312 312 313 313 312 313 315 315 316 318 319 320 320 322 322 323 321 321 321 322 321 321 322 322 322 323 324 321 326 324 324 325 325 323 322 322 322
301 303 308 310 310 313 311 312 312 312 315 313 311 313 316 316 315 317 320 320 321 321 321 322 321 322 322 321 320 321 321 322 323 323 323 322 324 323 322 322 323 322 322 322 321
305 302 306 311 310 313 311 311 311 311 316 312 312 314 316 315 316 318 318 317 318 320 320 320 320 321 322 321 321 321 322 322 322 322 328 322 323 323 322 322 322 322 322 322 322
302 304 308 309 309 309 311 310 312 314 308 311 313 313 314 315 315 317 318 318 315 320 321 319 321 319 320 322 322 322 323 325 327 327 323 320 321 322 321 321 322 322 321 320 320
303 304 306 307 309 309 309 310 314 311 310 309 312 313 315 314 315 316 318 315 314 313 318 321 322 321 320 321 323 322 323 323 324 326 322 319 321 320 320 320 320 320 321 320 318
302 303 306 306 307 308 309 311 313 310 310 311 312 313 314 313 314 316 316 317 315 315 318 319 320 319 319 320 320 322 323 320 321 314 321 320 319 319 319 319 318 318 318 318 318
304 306 305 306 307 307 306 310 308 309 309 312 312 314 315 314 314 314 316 315 316 315 315 317 320 318 317 318 319 320 319 321 321 323 321 318 318 318 319 318 318 318 317 317 315
304 305 304 304 307 308 308 308 306 308 309 312 312 313 313 314 315 315 315 314 315 316 315 315 317 317 318 319 319 319 321 320 320 320 322 321 319 318 319 319 317 316 315 314 311
304 303 305 304 303 304 307 306 306 310 309 308 310 311 314 312 313 314 314 314 313 316 317 315 315 319 319 317 317 318 319 319 320 322 321 321 322 318 318 318 315 315 315 314 315
302 305 305 305 306 307 305 308 308 310 308 309 310 309 310 313 314 313 311 309 310 312 316 314 316 318 319 316 316 318 319 319 318 318 322 322 320 316 316 316 316 316 317 317 316
302 305 303 302 300 306 307 309 309 308 308 308 309 309 310 311 308 313 311 308 308 310 312 314 315 315 316 314 314 316 316 317 318 319 319 318 316 315 315 316 316 316 317 315 316
304 301 302 303 302 308 309 309 309 308 307 307 308 309 310 310 308 311 310 309 309 309 311 312 314 312 312 311 311 313 314 314 315 316 316 316 316 316 316 315 317 316 316 315 315
302 303 302 302 304 309 309 309 309 307 308 308 309 309 308 309 309 309 309 309 309 309 312 311 312 311 312 311 311 312 314 315 315 315 315 316 317 316 314 314 316 314 313 313 311
303 304 305 304 307 309 310 309 308 307 307 308 308 308 309 308 308 308 308 308 309 309 310 311 311 312 312 311 311 312 312 311 312 313 314 315 315 315 315 315 314 311 310 310 310
Wind_Speed
35 34 32 34 32 32 38 34 32 30 29 30 29 25 24 23 23 24 26 17 17 19 10 9 11 7 5 5 3 4 8 10 10 7 4 4 7 3 2 4 7 6 1 5 12
37 36 35 33 34 32 35 37 33 32 29 28 30 28 24 24 24 30 30 25 24 16 12 6 9 9 10 6 4 8 9 12 3 5 5 5 8 6 6 9 10 9 7 7 10
36 38 38 36 35 35 30 37 36 32 30 28 27 29 27 21 23 34 34 29 20 19 18 8 8 10 13 8 9 8 13 8 5 5 5 6 6 7 9 9 11 12 13 12 13
40 37 39 39 36 37 36 31 37 34 30 29 25 27 26 24 9 17 25 29 28 19 17 12 9 13 12 11 12 9 13 8 4 3 3 8 8 8 15 12 1 8 7 15 16
40 40 39 41 38 36 36 33 32 36 33 29 28 25 26 26 28 5 22 25 27 28 17 14 15 17 15 13 10 14 15 9 10 5 7 5 10 11 12 15 9 6 9 14 16
44 41 41 41 42 38 36 36 29 34 34 31 29 27 26 24 24 21 16 18 28 24 15 15 11 18 11 16 15 7 17 13 9 12 9 8 13 6 10 14 15 11 11 13 15
46 43 42 42 43 41 37 35 34 30 34 32 28 27 23 33 14 25 27 23 19 25 15 11 8 9 11 10 10 7 9 11 15 17 14 6 15 19 16 5 14 14 14 14 15
43 45 43 45 44 44 39 36 35 28 31 31 27 27 17 25 18 18 23 25 29 27 28 19 11 8 12 4 6 10 12 17 15 16 9 9 20 18 21 19 16 16 16 15 16
46 43 45 46 45 45 41 35 33 30 25 28 23 29 11 23 29 24 26 22 22 24 29 26 11 3 7 12 10 12 17 21 18 12 11 12 14 20 20 17 18 21 22 21 20
45 42 45 46 47 45 40 33 28 27 21 23 27 19 9 22 29 27 23 24 26 23 16 13 9 5 6 6 15 15 17 17 14 11 13 17 17 19 12 8 16 21 25 26 24
45 44 44 48 48 47 39 32 21 15 31 38 20 16 12 11 31 29 29 28 24 19 9 15 7 12 19 9 7 9 8 18 15 2 5 15 17 20 23 26 27 27 25 23 23
48 44 46 48 49 48 44 43 46 17 15 34 24 24 21 20 15 24 33 21 13 16 17 8 18 18 18 11 2 6 6 11 7 1 4 12 19 20 23 26 27 29 29 30 29
47 49 46 49 49 50 51 53 37 21 8 27 31 15 16 21 13 32 36 28 13 17 19 15 9 21 19 13 11 10 10 7 8 5 10 11 23 22 26 30 32 34 32 31 31
47 49 48 51 48 57 55 44 40 28 5 10 13 16 17 17 5 21 38 25 8 22 24 17 22 14 16 24 18 17 16 10 10 5 3 1 9 16 17 17 17 21 26 32 34
48 59 37 51 54 63 66 51 42 24 11 19 21 12 16 18 13 18 28 14 17 19 18 14 18 19 19 20 21 13 16 19 16 8 9 14 7 7 10 15 17 20 29 31 29
46 54 47 51 48 45 52 49 42 7 11 7 17 16 11 24 10 16 15 14 12 17 19 7 11 16 20 16 20 8 7 12 12 8 7 16 14 11 11 13 13 21 21 21 20
38 54 43 40 41 41 56 47 13 12 6 10 16 21 23 12 18 8 14 7 6 8 15 7 12 4 10 16 16 12 15 4 5 5 8 4 9 14 12 10 13 11 6 3 4
35 40 35 40 32 51 55 16 12 12 10 9 16 23 22 19 13 15 12 7 13 3 4 8 8 15 15 14 9 14 13 5 5 5 4 1 9 4 11 18 22 21 16 12 10
36 37 41 44 43 52 39 15 7 18 14 16 24 24 7 15 10 9 17 16 12 9 3 4 2 11 11 10 15 8 8 5 3 2 2 7 12 14 15 12 11 9 9 6 5
43 39 31 40 45 53 13 12 5 16 18 24 16 21 13 22 13 19 14 10 9 14 11 3 4 6 10 3 6 8 11 3 2 4 6 9 13 11 4 5 4 2 4 3 10
37 15 29 37 35 34 11 4 6 25 27 21 19 15 26 19 19 22 19 12 20 18 17 4 2 4 9 9 10 3 5 2 4 3 4 5 7 6 5 7 8 9 6 7 8
31 4 36 37 7 4 10 9 17 25 22 4 13 13 19 29 19 19 19 17 24 24 14 8 2 5 12 2 5 17 10 7 5 6 6 4 10 5 7 1 5 7 10 11 16
21 7 37 33 4 6 10 15 21 25 17 13 9 8 15 16 12 18 14 9 7 15 15 9 4 3 8 2 4 10 17 16 15 5 6 3 9 6 8 1 6 8 15 18 15
13 5 10 15 1 12 18 19 24 17 9 7 13 14 17 14 7 11 14 4 6 15 9 17 8 8 8 5 6 13 13 19 18 10 19 16 30 24 14 14 19 22 19 22 25
6 2 7 7 8 14 17 26 26 11 7 11 7 17 12 9 4 5 11 7 6 5 10 6 6 13 17 17 6 8 18 19 21 24 20 22 25 33 12 11 15 19 21 21 23
7 5 8 4 25 19 19 19 23 11 8 8 15 20 9 14 9 13 17 12 8 6 13 8 1 7 8 12 9 9 6 11 17 21 18 24 25 37 20 25 21 14 21 23 24
9 19 17 11 15 13 12 21 19 14 9 16 23 15 11 16 11 14 10 15 4 12 15 10 5 3 4 6 7 9 23 22 20 18 19 18 26 25 18 18 22 27 29 30 34
Wind_Direction
238 236 236 232 232 232 229 228 229 230 230 229 228 229 228 229 228 229 232 230 235 240 264 248 244 253 262 258 235 260 253 250 249 242 226 159 211 193 255 227 200 189 173 130 171
236 236 236 234 231 229 228 227 227 228 229 231 227 227 229 228 235 234 226 228 230 238 242 243 237 226 232 235 235 238 243 254 327 288 256 181 220 212 223 216 222 201 184 163 197
237 234 234 234 230 230 231 226 226 226 226 228 227 225 227 228 235 240 232 229 231 230 229 240 248 227 231 237 218 224 250 261 237 259 276 248 224 226 229 239 240 216 198 183 202
237 234 233 233 232 230 228 229 224 225 225 225 227 222 221 219 234 231 236 226 228 229 228 233 229 224 227 219 219 250 249 268 271 247 256 251 257 221 235 241 198 225 198 187 197
238 233 232 230 230 229 225 225 226 222 222 224 224 222 212 215 225 269 217 226 226 227 215 218 221 233 229 229 218 238 255 256 248 240 254 276 254 248 246 245 233 209 195 197 202
238 235 232 229 229 227 228 223 225 223 219 220 222 222 212 220 238 227 216 214 235 215 208 217 226 230 264 239 218 257 236 240 243 252 252 248 253 230 236 236 230 221 222 214 213
236 234 230 230 226 226 226 225 218 221 219 217 219 222 217 225 235 222 230 231 213 220 186 204 231 216 225 219 228 206 231 229 236 238 242 257 251 237 244 207 234 229 230 224 225
237 233 228 227 225 224 224 224 219 218 217 214 220 221 227 231 225 213 210 218 211 210 214 201 212 245 232 172 186 209 230 248 229 219 226 214 260 245 233 233 237 239 237 236 228
235 232 226 223 222 221 221 220 216 215 215 212 217 216 213 228 208 205 209 202 195 204 212 221 220 303 246 189 200 208 226 228 242 199 231 219 259 254 248 231 247 247 250 246 244
233 230 224 220 218 217 215 211 211 209 206 211 220 218 188 208 203 197 189 182 169 181 155 157 170 186 282 231 215 217 230 253 245 206 219 245 245 259 248 255 257 252 253 253 249
228 227 221 217 214 212 206 193 183 205 200 196 200 205 192 198 196 186 177 166 164 162 176 169 168 198 204 219 340 309 328 261 242 348 280 252 257 260 258 259 252 252 256 253 250
223 228 219 214 211 209 198 189 195 208 195 207 208 215 228 212 210 190 177 174 169 197 179 170 215 192 185 151 117 338 287 283 279 172 284 272 272 274 269 260 258 260 255 254 253
220 218 212 211 209 204 194 200 184 174 164 203 213 227 197 195 202 191 186 189 196 204 196 218 195 211 182 178 180 229 255 241 267 281 260 290 274 259 259 253 253 252 252 255 254
215 213 209 209 207 195 197 188 184 169 164 170 200 215 200 198 249 204 196 189 190 208 201 224 221 192 201 211 200 215 186 201 227 252 252 183 288 267 276 277 237 247 248 250 247
223 218 211 199 203 188 195 180 169 181 204 170 179 183 187 188 189 218 190 190 197 192 202 204 201 203 215 216 196 242 185 202 218 226 281 250 251 271 247 259 257 258 249 245 245
216 215 215 199 194 204 179 166 164 173 205 165 147 174 156 204 189 160 179 202 227 200 207 206 211 200 214 211 193 118 142 204 225 226 243 239 237 269 259 266 266 255 256 255 254
203 202 177 185 197 183 173 155 173 203 125 163 171 168 184 180 204 195 186 178 161 191 188 181 179 130 185 206 195 166 165 172 187 206 247 160 224 245 270 261 260 274 320 340 308
199 206 193 192 187 175 162 166 192 125 152 178 165 165 178 168 203 199 199 162 198 194 155 154 179 174 180 196 175 196 175 175 213 192 263 144 240 244 253 266 262 266 277 283 299
194 184 194 189 189 167 168 189 168 150 145 159 162 159 155 186 201 166 212 207 191 172 177 108 173 175 176 197 171 172 212 273 310 125 271 235 256 264 254 252 267 272 272 286 6
187 181 187 182 180 170 175 178 129 155 148 155 159 182 162 170 175 190 189 186 170 194 202 225 114 221 202 79 255 218 156 129 182 212 234 249 252 251 264 218 226 266 347 13 341
182 165 188 189 179 174 186 135 144 154 147 163 161 175 194 174 186 188 189 179 197 180 195 236 221 171 159 201 175 136 172 174 138 224 265 271 247 10 219 259 82 70 356 355 24
176 162 173 184 168 171 167 142 155 152 154 117 163 179 182 186 192 189 195 206 196 172 184 184 157 168 192 127 235 209 187 157 189 198 243 314 257 306 295 186 75 17 23 356 347
139 120 173 182 151 140 147 138 156 150 139 141 152 176 176 171 187 194 196 117 199 198 193 148 183 144 169 207 207 216 214 214 230 268 199 227 260 82 48 346 351 298 330 330 345
159 150 128 181 77 144 136 136 144 138 91 98 125 138 141 153 29 191 187 115 188 207 218 168 212 221 239 207 174 209 224 220 224 233 250 242 269 255 269 288 299 310 328 333 329
158 75 120 159 186 171 139 149 146 141 131 137 135 152 141 150 118 163 159 132 156 166 172 204 227 238 246 265 271 278 224 229 233 234 240 253 258 267 272 297 329 317 311 313 310
138 128 85 123 151 171 126 159 146 118 137 124 144 155 143 155 171 170 176 180 171 167 185 194 248 234 257 260 239 240 232 235 242 251 266 259 272 271 305 297 285 285 294 297 301
129 131 123 162 172 140 153 158 139 122 65 136 138 134 121 132 113 146 156 177 191 183 183 174 157 134 238 192 243 258 238 239 243 239 233 246 253 282 283 279 286 298 295 289 286